Shawnee Mission, KS

7:47 AM CDT on September 25, 2016 (GMT -0500)
Johnson County Executive

Weather History for KOJC - August, 2013

Change the Weather History Date:

Friday, August 23, 2013

  Actual Average Record
Temperature  
Mean Temperature 80 °F 77 °F  
Max Temperature 90 °F 87 °F 99 °F (1962)
Min Temperature 70 °F 67 °F 49 °F (1961)
Degree Days  
Heating Degree Days 0 0  
Month to date heating degree days 0 0  
Since 1 June heating degree days 14 8  
Since 1 July heating degree days 0 0  
Cooling Degree Days 15 12  
Month to date cooling degree days 207 308  
Year to date cooling degree days 977 1080  
Since 1 June cooling degree days 876 976  
Growing Degree Days 30 (Base 50)    
Moisture  
Dew Point 67 °F    
Average Humidity 71    
Maximum Humidity 97    
Minimum Humidity 44    
Precipitation  
Precipitation 0.00 in 0.15 in 3.05 in (2004)
Month to date precipitation 2.67 2.54  
Year to date precipitation 26.50 26.78  
Sea Level Pressure  
Sea Level Pressure 30.03 in    
Wind  
Wind Speed 5 mph (SSE)    
Max Wind Speed 14 mph    
Max Gust Speed 25 mph    
Visibility 10 miles    
Events      
T = Trace of Precipitation, MM = Missing Value Source: NWS Daily Summary

Daily Weather History Graph

Daily Weather History Graph

Search for Another Location

Airport or City:

Trip Planner

Search our weather history database for the weather conditions in past years. The results will help you decide how hot, cold, wet, or windy it might be!

Date:

Astronomy

Aug. 23, 2013 Rise Set
Actual Time 6:40 AM CDT 8:02 PM CDT
Civil Twilight 6:12 AM CDT 8:29 PM CDT
Nautical Twilight 5:38 AM CDT 9:03 PM CDT
Astronomical Twilight 5:03 AM CDT 9:38 PM CDT
Moon 9:24 PM CDT (8/23) 9:34 AM CDT (8/23)
Length of Visible Light 14h 17m
Length of Day
13h 22m
Waning Gibbous, 91% of the Moon is Illuminated
Aug 23
Waning Gibbous
Aug 28
Last Quarter
Sep 5
New
Sep 12
First Quarter
Sep 19
Full

Hourly Weather History & Observations

Time (CDT) Temp. Heat Index Dew Point Humidity Pressure Visibility Wind Dir Wind Speed Gust Speed Precip Events Conditions
12:53 AM 73.9 °F - 69.1 °F 85% 30.04 in 10.0 mi Calm Calm - N/A   Clear
1:53 AM 73.0 °F - 69.1 °F 87% 30.03 in 10.0 mi SSE 3.5 mph - N/A   Clear
2:53 AM 73.0 °F - 69.1 °F 87% 30.04 in 10.0 mi Calm Calm - N/A   Clear
3:53 AM 72.0 °F - 68.0 °F 87% 30.04 in 10.0 mi Calm Calm - N/A   Clear
4:53 AM 71.1 °F - 68.0 °F 90% 30.04 in 9.0 mi Calm Calm - N/A   Clear
5:53 AM 71.1 °F - 68.0 °F 90% 30.04 in 8.0 mi Calm Calm - N/A   Clear
6:53 AM 70.0 °F - 68.0 °F 93% 30.06 in 9.0 mi Calm Calm - N/A   Clear
7:53 AM 73.0 °F - 69.1 °F 87% 30.06 in 6.0 mi Calm Calm - N/A   Clear
8:53 AM 78.1 °F - 70.0 °F 76% 30.07 in 9.0 mi South 4.6 mph - N/A   Clear
9:53 AM 82.0 °F 85.5 °F 69.1 °F 65% 30.07 in 10.0 mi South 3.5 mph - N/A   Clear
10:53 AM 86.0 °F 90.7 °F 70.0 °F 59% 30.07 in 10.0 mi South 4.6 mph - N/A   Clear
11:53 AM 87.1 °F 89.9 °F 66.9 °F 51% 30.06 in 10.0 mi South 6.9 mph - N/A   Partly Cloudy
12:53 PM 86.0 °F 87.6 °F 64.9 °F 49% 30.05 in 10.0 mi South 4.6 mph - N/A   Scattered Clouds
1:53 PM 90.0 °F 91.7 °F 64.9 °F 43% 30.03 in 10.0 mi ESE 9.2 mph 17.3 mph N/A   Clear
2:53 PM 89.1 °F 90.3 °F 64.0 °F 43% 30.01 in 10.0 mi SSE 6.9 mph 17.3 mph N/A   Clear
3:53 PM 89.1 °F 91.3 °F 66.0 °F 46% 30.00 in 10.0 mi SE 11.5 mph 16.1 mph N/A   Partly Cloudy
4:53 PM 89.1 °F 92.1 °F 66.9 °F 48% 30.00 in 10.0 mi South 10.4 mph - N/A   Partly Cloudy
5:53 PM 87.1 °F 89.2 °F 66.0 °F 49% 29.99 in 10.0 mi SE 9.2 mph - N/A   Clear
6:53 PM 82.9 °F 85.0 °F 66.0 °F 56% 30.00 in 10.0 mi SSE 8.1 mph - N/A   Clear
7:53 PM 81.0 °F 83.0 °F 66.0 °F 60% 30.00 in 10.0 mi SSE 4.6 mph - N/A   Clear
8:53 PM 80.1 °F 82.3 °F 66.9 °F 64% 30.00 in 10.0 mi SE 3.5 mph - N/A   Clear
9:53 PM 78.1 °F - 66.9 °F 68% 30.01 in 10.0 mi SE 4.6 mph - N/A   Clear
10:53 PM 75.9 °F - 68.0 °F 76% 30.02 in 10.0 mi SE 4.6 mph - N/A   Clear
11:53 PM 75.0 °F - 68.0 °F 79% 30.02 in 10.0 mi SE 5.8 mph - N/A   Clear